User: anonymous   Login
Location: Niverville
(49.6028°N, 97.0419°W)
Time: 01:08:18
(UTC-05:00)
Language:

Cosmos 2237 Rocket - Orbit

View from above orbital plane
View from above orbital plane
View from above satellite
View from above satellite

Ground track
Ground track

The orbit data is extracted from the following two-line orbital elements,

1 22566U 93016B   18168.06275949 +.00000208 +00000-0 +13207-3 0  9992
2 22566 071.0076 021.0192 0012097 293.4474 066.5377 14.14952105302877
Epoch (UTC): 17 June 2018 01:30:22
Eccentricity: 0.0012097
inclination: 71.0076°
perigee height: 834 km
apogee height: 851 km
right ascension of ascending node: 21.0192°
argument of perigee: 293.4474°
revolutions per day: 14.14952105
mean anomaly at epoch: 66.5377°
orbit number at epoch: 30287

The dashed part of the orbit path shows where the satellite is in the earth's shadow,  

DLR